Location: Remedello Sotto
(45.2500°N, 10.3667°E)
Time: 10:29:24
(UTC+00:00)

Meteor 1-11 - Pass Details

Date: 03 February 2023
Orbit: 839 x 888 km, 81.2° (Epoch: 31 March)

Event Time Altitude Azimuth Distance (km) Brightness Sun altitude
Rises 17:45:13 0° 190° (S) 3,480 7.7 -13.8°
Reaches altitude 10° 17:47:39 10° 191° (S) 2,545 7.0 -14.2°
Maximum altitude 17:53:28 85° 280° (W) 896 4.3 -15.3°
Drops below altitude 10° 17:59:18 10° 10° (N) 2,548 6.5 -16.3°
Sets 18:01:45 0° 11° (N) 3,485 7.2 -16.7°
